Index of /20260502/WXO-DD/model_rdps/10km/06/035
Name Last modified Size Description
Parent Directory -
20260502T06Z_MSC_RDPS_AbsoluteVorticity_IsbL-0250_RLatLon0.09_PT035H.grib2 2026-05-02 08:49 616K
20260502T06Z_MSC_RDPS_AbsoluteVorticity_IsbL-0500_RLatLon0.09_PT035H.grib2 2026-05-02 08:49 683K
20260502T06Z_MSC_RDPS_AbsoluteVorticity_IsbL-0700_RLatLon0.09_PT035H.grib2 2026-05-02 08:49 621K
20260502T06Z_MSC_RDPS_AbsoluteVorticity_IsbL-0850_RLatLon0.09_PT035H.grib2 2026-05-02 08:49 793K
20260502T06Z_MSC_RDPS_AirTemp_AGL-120m_RLatLon0.09_PT035H.grib2 2026-05-02 08:49 397K
20260502T06Z_MSC_RDPS_AirTemp_AGL-2m_RLatLon0.09_PT035H.grib2 2026-05-02 08:49 637K
20260502T06Z_MSC_RDPS_AirTemp_AGL-40m_RLatLon0.09_PT035H.grib2 2026-05-02 08:49 408K
20260502T06Z_MSC_RDPS_AirTemp_AGL-80m_RLatLon0.09_PT035H.grib2 2026-05-02 08:49 402K
20260502T06Z_MSC_RDPS_AirTemp_IsbL-0001_RLatLon0.09_PT035H.grib2 2026-05-02 08:49 326K
20260502T06Z_MSC_RDPS_AirTemp_IsbL-0005_RLatLon0.09_PT035H.grib2 2026-05-02 08:49 288K
20260502T06Z_MSC_RDPS_AirTemp_IsbL-0010_RLatLon0.09_PT035H.grib2 2026-05-02 08:49 300K
20260502T06Z_MSC_RDPS_AirTemp_IsbL-0020_RLatLon0.09_PT035H.grib2 2026-05-02 08:49 413K
20260502T06Z_MSC_RDPS_AirTemp_IsbL-0030_RLatLon0.09_PT035H.grib2 2026-05-02 08:49 340K
20260502T06Z_MSC_RDPS_AirTemp_IsbL-0050_RLatLon0.09_PT035H.grib2 2026-05-02 08:49 316K
20260502T06Z_MSC_RDPS_AirTemp_IsbL-0100_RLatLon0.09_PT035H.grib2 2026-05-02 08:49 425K
20260502T06Z_MSC_RDPS_AirTemp_IsbL-0150_RLatLon0.09_PT035H.grib2 2026-05-02 08:49 418K
20260502T06Z_MSC_RDPS_AirTemp_IsbL-0175_RLatLon0.09_PT035H.grib2 2026-05-02 08:49 407K
20260502T06Z_MSC_RDPS_AirTemp_IsbL-0200_RLatLon0.09_PT035H.grib2 2026-05-02 08:49 413K
20260502T06Z_MSC_RDPS_AirTemp_IsbL-0225_RLatLon0.09_PT035H.grib2 2026-05-02 08:49 418K
20260502T06Z_MSC_RDPS_AirTemp_IsbL-0250_RLatLon0.09_PT035H.grib2 2026-05-02 08:49 425K
20260502T06Z_MSC_RDPS_AirTemp_IsbL-0275_RLatLon0.09_PT035H.grib2 2026-05-02 08:49 404K
20260502T06Z_MSC_RDPS_AirTemp_IsbL-0300_RLatLon0.09_PT035H.grib2 2026-05-02 08:49 410K
20260502T06Z_MSC_RDPS_AirTemp_IsbL-0350_RLatLon0.09_PT035H.grib2 2026-05-02 08:49 423K
20260502T06Z_MSC_RDPS_AirTemp_IsbL-0400_RLatLon0.09_PT035H.grib2 2026-05-02 08:49 424K
20260502T06Z_MSC_RDPS_AirTemp_IsbL-0450_RLatLon0.09_PT035H.grib2 2026-05-02 08:49 431K
20260502T06Z_MSC_RDPS_AirTemp_IsbL-0500_RLatLon0.09_PT035H.grib2 2026-05-02 08:49 407K
20260502T06Z_MSC_RDPS_AirTemp_IsbL-0550_RLatLon0.09_PT035H.grib2 2026-05-02 08:49 423K
20260502T06Z_MSC_RDPS_AirTemp_IsbL-0600_RLatLon0.09_PT035H.grib2 2026-05-02 08:49 441K
20260502T06Z_MSC_RDPS_AirTemp_IsbL-0650_RLatLon0.09_PT035H.grib2 2026-05-02 08:49 457K
20260502T06Z_MSC_RDPS_AirTemp_IsbL-0700_RLatLon0.09_PT035H.grib2 2026-05-02 08:49 484K
20260502T06Z_MSC_RDPS_AirTemp_IsbL-0750_RLatLon0.09_PT035H.grib2 2026-05-02 08:49 412K
20260502T06Z_MSC_RDPS_AirTemp_IsbL-0800_RLatLon0.09_PT035H.grib2 2026-05-02 08:49 459K
20260502T06Z_MSC_RDPS_AirTemp_IsbL-0850_RLatLon0.09_PT035H.grib2 2026-05-02 08:49 511K
20260502T06Z_MSC_RDPS_AirTemp_IsbL-0875_RLatLon0.09_PT035H.grib2 2026-05-02 08:49 531K
20260502T06Z_MSC_RDPS_AirTemp_IsbL-0900_RLatLon0.09_PT035H.grib2 2026-05-02 08:49 540K
20260502T06Z_MSC_RDPS_AirTemp_IsbL-0925_RLatLon0.09_PT035H.grib2 2026-05-02 08:49 534K
20260502T06Z_MSC_RDPS_AirTemp_IsbL-0950_RLatLon0.09_PT035H.grib2 2026-05-02 08:49 536K
20260502T06Z_MSC_RDPS_AirTemp_IsbL-0970_RLatLon0.09_PT035H.grib2 2026-05-02 08:49 530K
20260502T06Z_MSC_RDPS_AirTemp_IsbL-0985_RLatLon0.09_PT035H.grib2 2026-05-02 08:49 522K
20260502T06Z_MSC_RDPS_AirTemp_IsbL-1000_RLatLon0.09_PT035H.grib2 2026-05-02 08:49 506K
20260502T06Z_MSC_RDPS_AirTemp_IsbL-1015_RLatLon0.09_PT035H.grib2 2026-05-02 08:49 507K
20260502T06Z_MSC_RDPS_Albedo_Sfc_RLatLon0.09_PT035H.grib2 2026-05-02 08:49 156K
20260502T06Z_MSC_RDPS_CAPE_Sfc_RLatLon0.09_PT035H.grib2 2026-05-02 08:49 1.8M
20260502T06Z_MSC_RDPS_CIN_Sfc_RLatLon0.09_PT035H.grib2 2026-05-02 08:49 1.2M
20260502T06Z_MSC_RDPS_CloudWater_EAtm_RLatLon0.09_PT035H.grib2 2026-05-02 08:49 220K
20260502T06Z_MSC_RDPS_ConvectivePrecip-Accum_Sfc_RLatLon0.09_PT035H.grib2 2026-05-02 08:49 1.0M
20260502T06Z_MSC_RDPS_DewPointDepression_AGL-2m_RLatLon0.09_PT035H.grib2 2026-05-02 08:49 428K
20260502T06Z_MSC_RDPS_DewPointDepression_IsbL-0001_RLatLon0.09_PT035H.grib2 2026-05-02 08:49 193
20260502T06Z_MSC_RDPS_DewPointDepression_IsbL-0005_RLatLon0.09_PT035H.grib2 2026-05-02 08:49 193
20260502T06Z_MSC_RDPS_DewPointDepression_IsbL-0010_RLatLon0.09_PT035H.grib2 2026-05-02 08:49 193
20260502T06Z_MSC_RDPS_DewPointDepression_IsbL-0020_RLatLon0.09_PT035H.grib2 2026-05-02 08:49 193
20260502T06Z_MSC_RDPS_DewPointDepression_IsbL-0030_RLatLon0.09_PT035H.grib2 2026-05-02 08:49 193
20260502T06Z_MSC_RDPS_DewPointDepression_IsbL-0050_RLatLon0.09_PT035H.grib2 2026-05-02 08:49 75K
20260502T06Z_MSC_RDPS_DewPointDepression_IsbL-0100_RLatLon0.09_PT035H.grib2 2026-05-02 08:49 120K
20260502T06Z_MSC_RDPS_DewPointDepression_IsbL-0150_RLatLon0.09_PT035H.grib2 2026-05-02 08:49 151K
20260502T06Z_MSC_RDPS_DewPointDepression_IsbL-0175_RLatLon0.09_PT035H.grib2 2026-05-02 08:49 186K
20260502T06Z_MSC_RDPS_DewPointDepression_IsbL-0200_RLatLon0.09_PT035H.grib2 2026-05-02 08:49 223K
20260502T06Z_MSC_RDPS_DewPointDepression_IsbL-0225_RLatLon0.09_PT035H.grib2 2026-05-02 08:49 263K
20260502T06Z_MSC_RDPS_DewPointDepression_IsbL-0250_RLatLon0.09_PT035H.grib2 2026-05-02 08:49 298K
20260502T06Z_MSC_RDPS_DewPointDepression_IsbL-0275_RLatLon0.09_PT035H.grib2 2026-05-02 08:49 308K
20260502T06Z_MSC_RDPS_DewPointDepression_IsbL-0300_RLatLon0.09_PT035H.grib2 2026-05-02 08:49 326K
20260502T06Z_MSC_RDPS_DewPointDepression_IsbL-0350_RLatLon0.09_PT035H.grib2 2026-05-02 08:49 332K
20260502T06Z_MSC_RDPS_DewPointDepression_IsbL-0400_RLatLon0.09_PT035H.grib2 2026-05-02 08:49 340K
20260502T06Z_MSC_RDPS_DewPointDepression_IsbL-0450_RLatLon0.09_PT035H.grib2 2026-05-02 08:49 342K
20260502T06Z_MSC_RDPS_DewPointDepression_IsbL-0500_RLatLon0.09_PT035H.grib2 2026-05-02 08:49 348K
20260502T06Z_MSC_RDPS_DewPointDepression_IsbL-0550_RLatLon0.09_PT035H.grib2 2026-05-02 08:49 358K
20260502T06Z_MSC_RDPS_DewPointDepression_IsbL-0600_RLatLon0.09_PT035H.grib2 2026-05-02 08:49 365K
20260502T06Z_MSC_RDPS_DewPointDepression_IsbL-0650_RLatLon0.09_PT035H.grib2 2026-05-02 08:49 372K
20260502T06Z_MSC_RDPS_DewPointDepression_IsbL-0700_RLatLon0.09_PT035H.grib2 2026-05-02 08:49 387K
20260502T06Z_MSC_RDPS_DewPointDepression_IsbL-0750_RLatLon0.09_PT035H.grib2 2026-05-02 08:49 409K
20260502T06Z_MSC_RDPS_DewPointDepression_IsbL-0800_RLatLon0.09_PT035H.grib2 2026-05-02 08:49 448K
20260502T06Z_MSC_RDPS_DewPointDepression_IsbL-0850_RLatLon0.09_PT035H.grib2 2026-05-02 08:49 482K
20260502T06Z_MSC_RDPS_DewPointDepression_IsbL-0875_RLatLon0.09_PT035H.grib2 2026-05-02 08:49 482K
20260502T06Z_MSC_RDPS_DewPointDepression_IsbL-0900_RLatLon0.09_PT035H.grib2 2026-05-02 08:49 473K
20260502T06Z_MSC_RDPS_DewPointDepression_IsbL-0925_RLatLon0.09_PT035H.grib2 2026-05-02 08:49 459K
20260502T06Z_MSC_RDPS_DewPointDepression_IsbL-0950_RLatLon0.09_PT035H.grib2 2026-05-02 08:49 456K
20260502T06Z_MSC_RDPS_DewPointDepression_IsbL-0970_RLatLon0.09_PT035H.grib2 2026-05-02 08:49 449K
20260502T06Z_MSC_RDPS_DewPointDepression_IsbL-0985_RLatLon0.09_PT035H.grib2 2026-05-02 08:49 447K
20260502T06Z_MSC_RDPS_DewPointDepression_IsbL-1000_RLatLon0.09_PT035H.grib2 2026-05-02 08:49 442K
20260502T06Z_MSC_RDPS_DewPointDepression_IsbL-1015_RLatLon0.09_PT035H.grib2 2026-05-02 08:49 435K
20260502T06Z_MSC_RDPS_DewPoint_AGL-2m_RLatLon0.09_PT035H.grib2 2026-05-02 08:49 408K
20260502T06Z_MSC_RDPS_DownwardLongwaveRadiationFlux-Accum_Sfc_RLatLon0.09_PT035H.grib2 2026-05-02 08:49 373K
20260502T06Z_MSC_RDPS_DownwardShortwaveRadiationFlux-Accum_NTAtm_RLatLon0.09_PT035H.grib2 2026-05-02 08:49 133K
20260502T06Z_MSC_RDPS_DownwardShortwaveRadiationFlux-Accum_Sfc_RLatLon0.09_PT035H.grib2 2026-05-02 08:49 552K
20260502T06Z_MSC_RDPS_FreezingRain-Accum1h_Sfc_RLatLon0.09_PT035H.grib2 2026-05-02 08:49 16K
20260502T06Z_MSC_RDPS_FreezingRain-Accum_Sfc_RLatLon0.09_PT035H.grib2 2026-05-02 08:49 135K
20260502T06Z_MSC_RDPS_GeopotentialHeight_IsbL-0001_RLatLon0.09_PT035H.grib2 2026-05-02 08:49 322K
20260502T06Z_MSC_RDPS_GeopotentialHeight_IsbL-0005_RLatLon0.09_PT035H.grib2 2026-05-02 08:49 304K
20260502T06Z_MSC_RDPS_GeopotentialHeight_IsbL-0010_RLatLon0.09_PT035H.grib2 2026-05-02 08:49 305K
20260502T06Z_MSC_RDPS_GeopotentialHeight_IsbL-0020_RLatLon0.09_PT035H.grib2 2026-05-02 08:49 401K
20260502T06Z_MSC_RDPS_GeopotentialHeight_IsbL-0030_RLatLon0.09_PT035H.grib2 2026-05-02 08:49 308K
20260502T06Z_MSC_RDPS_GeopotentialHeight_IsbL-0050_RLatLon0.09_PT035H.grib2 2026-05-02 08:49 311K
20260502T06Z_MSC_RDPS_GeopotentialHeight_IsbL-0100_RLatLon0.09_PT035H.grib2 2026-05-02 08:49 286K
20260502T06Z_MSC_RDPS_GeopotentialHeight_IsbL-0150_RLatLon0.09_PT035H.grib2 2026-05-02 08:49 230K
20260502T06Z_MSC_RDPS_GeopotentialHeight_IsbL-0175_RLatLon0.09_PT035H.grib2 2026-05-02 08:49 233K
20260502T06Z_MSC_RDPS_GeopotentialHeight_IsbL-0200_RLatLon0.09_PT035H.grib2 2026-05-02 08:49 264K
20260502T06Z_MSC_RDPS_GeopotentialHeight_IsbL-0225_RLatLon0.09_PT035H.grib2 2026-05-02 08:49 264K
20260502T06Z_MSC_RDPS_GeopotentialHeight_IsbL-0250_RLatLon0.09_PT035H.grib2 2026-05-02 08:49 265K
20260502T06Z_MSC_RDPS_GeopotentialHeight_IsbL-0275_RLatLon0.09_PT035H.grib2 2026-05-02 08:49 265K
20260502T06Z_MSC_RDPS_GeopotentialHeight_IsbL-0300_RLatLon0.09_PT035H.grib2 2026-05-02 08:49 235K
20260502T06Z_MSC_RDPS_GeopotentialHeight_IsbL-0350_RLatLon0.09_PT035H.grib2 2026-05-02 08:49 230K
20260502T06Z_MSC_RDPS_GeopotentialHeight_IsbL-0400_RLatLon0.09_PT035H.grib2 2026-05-02 08:49 227K
20260502T06Z_MSC_RDPS_GeopotentialHeight_IsbL-0450_RLatLon0.09_PT035H.grib2 2026-05-02 08:49 296K
20260502T06Z_MSC_RDPS_GeopotentialHeight_IsbL-0500_RLatLon0.09_PT035H.grib2 2026-05-02 08:49 291K
20260502T06Z_MSC_RDPS_GeopotentialHeight_IsbL-0550_RLatLon0.09_PT035H.grib2 2026-05-02 08:49 288K
20260502T06Z_MSC_RDPS_GeopotentialHeight_IsbL-0600_RLatLon0.09_PT035H.grib2 2026-05-02 08:49 284K
20260502T06Z_MSC_RDPS_GeopotentialHeight_IsbL-0650_RLatLon0.09_PT035H.grib2 2026-05-02 08:49 283K
20260502T06Z_MSC_RDPS_GeopotentialHeight_IsbL-0700_RLatLon0.09_PT035H.grib2 2026-05-02 08:49 256K
20260502T06Z_MSC_RDPS_GeopotentialHeight_IsbL-0750_RLatLon0.09_PT035H.grib2 2026-05-02 08:49 259K
20260502T06Z_MSC_RDPS_GeopotentialHeight_IsbL-0800_RLatLon0.09_PT035H.grib2 2026-05-02 08:49 352K
20260502T06Z_MSC_RDPS_GeopotentialHeight_IsbL-0850_RLatLon0.09_PT035H.grib2 2026-05-02 08:49 361K
20260502T06Z_MSC_RDPS_GeopotentialHeight_IsbL-0875_RLatLon0.09_PT035H.grib2 2026-05-02 08:49 365K
20260502T06Z_MSC_RDPS_GeopotentialHeight_IsbL-0900_RLatLon0.09_PT035H.grib2 2026-05-02 08:49 369K
20260502T06Z_MSC_RDPS_GeopotentialHeight_IsbL-0925_RLatLon0.09_PT035H.grib2 2026-05-02 08:49 372K
20260502T06Z_MSC_RDPS_GeopotentialHeight_IsbL-0950_RLatLon0.09_PT035H.grib2 2026-05-02 08:49 375K
20260502T06Z_MSC_RDPS_GeopotentialHeight_IsbL-0970_RLatLon0.09_PT035H.grib2 2026-05-02 08:49 381K
20260502T06Z_MSC_RDPS_GeopotentialHeight_IsbL-0985_RLatLon0.09_PT035H.grib2 2026-05-02 08:49 390K
20260502T06Z_MSC_RDPS_GeopotentialHeight_IsbL-1000_RLatLon0.09_PT035H.grib2 2026-05-02 08:49 403K
20260502T06Z_MSC_RDPS_GeopotentialHeight_IsbL-1015_RLatLon0.09_PT035H.grib2 2026-05-02 08:49 419K
20260502T06Z_MSC_RDPS_Humidex_Sfc_RLatLon0.09_PT035H.grib2 2026-05-02 08:49 2.4M
20260502T06Z_MSC_RDPS_IcePellets-Accum1h_Sfc_RLatLon0.09_PT035H.grib2 2026-05-02 08:49 1.4K
20260502T06Z_MSC_RDPS_IcePellets-Accum_Sfc_RLatLon0.09_PT035H.grib2 2026-05-02 08:49 17K
20260502T06Z_MSC_RDPS_KIndex_Sfc_RLatLon0.09_PT035H.grib2 2026-05-02 08:49 2.4M
20260502T06Z_MSC_RDPS_LatentHeatNetFlux_Sfc_RLatLon0.09_PT035H.grib2 2026-05-02 08:49 314K
20260502T06Z_MSC_RDPS_LiftedIndex-MU-VT_IsbL-0500_RLatLon0.09_PT035H.grib2 2026-05-02 08:49 2.4M
20260502T06Z_MSC_RDPS_NetLongwaveRadiationFlux-Accum_Sfc_RLatLon0.09_PT035H.grib2 2026-05-02 08:49 507K
20260502T06Z_MSC_RDPS_NetShortwaveRadiationFlux-Accum_Sfc_RLatLon0.09_PT035H.grib2 2026-05-02 08:49 553K
20260502T06Z_MSC_RDPS_PlanetaryBoundaryLayerHeight_Sfc_RLatLon0.09_PT035H.grib2 2026-05-02 08:49 1.0M
20260502T06Z_MSC_RDPS_Precip-Accum1h_Sfc_RLatLon0.09_PT035H.grib2 2026-05-02 08:49 1.2M
20260502T06Z_MSC_RDPS_Precip-Accum_Sfc_RLatLon0.09_PT035H.grib2 2026-05-02 08:49 2.0M
20260502T06Z_MSC_RDPS_PrecipRate_Sfc_RLatLon0.09_PT035H.grib2 2026-05-02 08:49 173K
20260502T06Z_MSC_RDPS_PrecipType-Instant_Sfc_RLatLon0.09_PT035H.grib2 2026-05-02 08:49 574K
20260502T06Z_MSC_RDPS_Pressure-Trend3h_Sfc_RLatLon0.09_PT035H.grib2 2026-05-02 08:49 1.2M
20260502T06Z_MSC_RDPS_Pressure_MSL_RLatLon0.09_PT035H.grib2 2026-05-02 08:49 332K
20260502T06Z_MSC_RDPS_Pressure_PVU-1.5_RLatLon0.09_PT035H.grib2 2026-05-02 08:49 2.3M
20260502T06Z_MSC_RDPS_Pressure_PVU-1_RLatLon0.09_PT035H.grib2 2026-05-02 08:49 2.4M
20260502T06Z_MSC_RDPS_Pressure_PVU-2_RLatLon0.09_PT035H.grib2 2026-05-02 08:49 2.4M
20260502T06Z_MSC_RDPS_Pressure_Sfc_RLatLon0.09_PT035H.grib2 2026-05-02 08:49 500K
20260502T06Z_MSC_RDPS_RadiativeTemp_Sfc_RLatLon0.09_PT035H.grib2 2026-05-02 08:49 327K
20260502T06Z_MSC_RDPS_Rain-Accum1h_Sfc_RLatLon0.09_PT035H.grib2 2026-05-02 08:49 594K
20260502T06Z_MSC_RDPS_Rain-Accum_Sfc_RLatLon0.09_PT035H.grib2 2026-05-02 08:49 1.6M
20260502T06Z_MSC_RDPS_RelativeHumidity_AGL-2m_RLatLon0.09_PT035H.grib2 2026-05-02 08:49 1.0M
20260502T06Z_MSC_RDPS_RelativeHumidity_IsbL-0010_RLatLon0.09_PT035H.grib2 2026-05-02 08:49 634K
20260502T06Z_MSC_RDPS_RelativeHumidity_IsbL-0020_RLatLon0.09_PT035H.grib2 2026-05-02 08:49 671K
20260502T06Z_MSC_RDPS_RelativeHumidity_IsbL-0030_RLatLon0.09_PT035H.grib2 2026-05-02 08:49 606K
20260502T06Z_MSC_RDPS_RelativeHumidity_IsbL-0050_RLatLon0.09_PT035H.grib2 2026-05-02 08:49 359K
20260502T06Z_MSC_RDPS_RelativeHumidity_IsbL-0100_RLatLon0.09_PT035H.grib2 2026-05-02 08:49 278K
20260502T06Z_MSC_RDPS_RelativeHumidity_IsbL-0150_RLatLon0.09_PT035H.grib2 2026-05-02 08:49 420K
20260502T06Z_MSC_RDPS_RelativeHumidity_IsbL-0175_RLatLon0.09_PT035H.grib2 2026-05-02 08:49 481K
20260502T06Z_MSC_RDPS_RelativeHumidity_IsbL-0200_RLatLon0.09_PT035H.grib2 2026-05-02 08:49 556K
20260502T06Z_MSC_RDPS_RelativeHumidity_IsbL-0225_RLatLon0.09_PT035H.grib2 2026-05-02 08:49 623K
20260502T06Z_MSC_RDPS_RelativeHumidity_IsbL-0250_RLatLon0.09_PT035H.grib2 2026-05-02 08:49 683K
20260502T06Z_MSC_RDPS_RelativeHumidity_IsbL-0275_RLatLon0.09_PT035H.grib2 2026-05-02 08:49 707K
20260502T06Z_MSC_RDPS_RelativeHumidity_IsbL-0300_RLatLon0.09_PT035H.grib2 2026-05-02 08:49 748K
20260502T06Z_MSC_RDPS_RelativeHumidity_IsbL-0350_RLatLon0.09_PT035H.grib2 2026-05-02 08:49 775K
20260502T06Z_MSC_RDPS_RelativeHumidity_IsbL-0400_RLatLon0.09_PT035H.grib2 2026-05-02 08:49 787K
20260502T06Z_MSC_RDPS_RelativeHumidity_IsbL-0450_RLatLon0.09_PT035H.grib2 2026-05-02 08:49 789K
20260502T06Z_MSC_RDPS_RelativeHumidity_IsbL-0500_RLatLon0.09_PT035H.grib2 2026-05-02 08:49 793K
20260502T06Z_MSC_RDPS_RelativeHumidity_IsbL-0550_RLatLon0.09_PT035H.grib2 2026-05-02 08:49 810K
20260502T06Z_MSC_RDPS_RelativeHumidity_IsbL-0600_RLatLon0.09_PT035H.grib2 2026-05-02 08:49 827K
20260502T06Z_MSC_RDPS_RelativeHumidity_IsbL-0650_RLatLon0.09_PT035H.grib2 2026-05-02 08:49 841K
20260502T06Z_MSC_RDPS_RelativeHumidity_IsbL-0700_RLatLon0.09_PT035H.grib2 2026-05-02 08:49 877K
20260502T06Z_MSC_RDPS_RelativeHumidity_IsbL-0750_RLatLon0.09_PT035H.grib2 2026-05-02 08:49 922K
20260502T06Z_MSC_RDPS_RelativeHumidity_IsbL-0800_RLatLon0.09_PT035H.grib2 2026-05-02 08:49 1.0M
20260502T06Z_MSC_RDPS_RelativeHumidity_IsbL-0850_RLatLon0.09_PT035H.grib2 2026-05-02 08:49 1.0M
20260502T06Z_MSC_RDPS_RelativeHumidity_IsbL-0875_RLatLon0.09_PT035H.grib2 2026-05-02 08:49 1.1M
20260502T06Z_MSC_RDPS_RelativeHumidity_IsbL-0900_RLatLon0.09_PT035H.grib2 2026-05-02 08:49 1.1M
20260502T06Z_MSC_RDPS_RelativeHumidity_IsbL-0925_RLatLon0.09_PT035H.grib2 2026-05-02 08:49 1.1M
20260502T06Z_MSC_RDPS_RelativeHumidity_IsbL-0950_RLatLon0.09_PT035H.grib2 2026-05-02 08:49 1.1M
20260502T06Z_MSC_RDPS_RelativeHumidity_IsbL-0970_RLatLon0.09_PT035H.grib2 2026-05-02 08:49 1.1M
20260502T06Z_MSC_RDPS_RelativeHumidity_IsbL-0985_RLatLon0.09_PT035H.grib2 2026-05-02 08:49 1.0M
20260502T06Z_MSC_RDPS_RelativeHumidity_IsbL-1000_RLatLon0.09_PT035H.grib2 2026-05-02 08:49 1.0M
20260502T06Z_MSC_RDPS_RelativeHumidity_IsbL-1015_RLatLon0.09_PT035H.grib2 2026-05-02 08:49 1.0M
20260502T06Z_MSC_RDPS_Runoff-Accum_Sfc_RLatLon0.09_PT035H.grib2 2026-05-02 08:49 62K
20260502T06Z_MSC_RDPS_SWEATIndex_Sfc_RLatLon0.09_PT035H.grib2 2026-05-02 08:49 2.4M
20260502T06Z_MSC_RDPS_SeeingIndex_EAtm_RLatLon0.09_PT035H.grib2 2026-05-02 08:49 1.0M
20260502T06Z_MSC_RDPS_SensibleHeatNetFlux_Sfc_RLatLon0.09_PT035H.grib2 2026-05-02 08:49 369K
20260502T06Z_MSC_RDPS_ShowalterIndex_IsbL-0500_RLatLon0.09_PT035H.grib2 2026-05-02 08:49 2.6M
20260502T06Z_MSC_RDPS_SkyTransparencyIndex_EAtm_RLatLon0.09_PT035H.grib2 2026-05-02 08:49 721K
20260502T06Z_MSC_RDPS_Snow-Accum1h_Sfc_RLatLon0.09_PT035H.grib2 2026-05-02 08:49 447K
20260502T06Z_MSC_RDPS_Snow-Accum_Sfc_RLatLon0.09_PT035H.grib2 2026-05-02 08:49 729K
20260502T06Z_MSC_RDPS_SnowDensity_Sfc_RLatLon0.09_PT035H.grib2 2026-05-02 08:49 172K
20260502T06Z_MSC_RDPS_SnowDepth_Sfc_RLatLon0.09_PT035H.grib2 2026-05-02 08:49 654K
20260502T06Z_MSC_RDPS_SoilTemp_DBS-0to10cm_RLatLon0.09_PT035H.grib2 2026-05-02 08:49 233K
20260502T06Z_MSC_RDPS_SoilTemp_Sfc_RLatLon0.09_PT035H.grib2 2026-05-02 08:49 298K
20260502T06Z_MSC_RDPS_SoilVolumetricIceContent_Sfc_RLatLon0.09_PT035H.grib2 2026-05-02 08:49 157K
20260502T06Z_MSC_RDPS_SoilVolumetricWaterContent_DBS-0to10cm_RLatLon0.09_PT035H.grib2 2026-05-02 08:49 273K
20260502T06Z_MSC_RDPS_SoilVolumetricWaterContent_DBS-0to1cm_RLatLon0.09_PT035H.grib2 2026-05-02 08:49 341K
20260502T06Z_MSC_RDPS_SpecificHumidity_AGL-120m_RLatLon0.09_PT035H.grib2 2026-05-02 08:49 506K
20260502T06Z_MSC_RDPS_SpecificHumidity_AGL-2m_RLatLon0.09_PT035H.grib2 2026-05-02 08:49 675K
20260502T06Z_MSC_RDPS_SpecificHumidity_AGL-40m_RLatLon0.09_PT035H.grib2 2026-05-02 08:49 511K
20260502T06Z_MSC_RDPS_SpecificHumidity_AGL-80m_RLatLon0.09_PT035H.grib2 2026-05-02 08:49 507K
20260502T06Z_MSC_RDPS_SpecificHumidity_IsbL-0001_RLatLon0.09_PT035H.grib2 2026-05-02 08:49 371K
20260502T06Z_MSC_RDPS_SpecificHumidity_IsbL-0005_RLatLon0.09_PT035H.grib2 2026-05-02 08:49 368K
20260502T06Z_MSC_RDPS_SpecificHumidity_IsbL-0010_RLatLon0.09_PT035H.grib2 2026-05-02 08:49 400K
20260502T06Z_MSC_RDPS_SpecificHumidity_IsbL-0020_RLatLon0.09_PT035H.grib2 2026-05-02 08:49 380K
20260502T06Z_MSC_RDPS_SpecificHumidity_IsbL-0030_RLatLon0.09_PT035H.grib2 2026-05-02 08:49 374K
20260502T06Z_MSC_RDPS_SpecificHumidity_IsbL-0050_RLatLon0.09_PT035H.grib2 2026-05-02 08:49 456K
20260502T06Z_MSC_RDPS_SpecificHumidity_IsbL-0100_RLatLon0.09_PT035H.grib2 2026-05-02 08:49 423K
20260502T06Z_MSC_RDPS_SpecificHumidity_IsbL-0150_RLatLon0.09_PT035H.grib2 2026-05-02 08:49 459K
20260502T06Z_MSC_RDPS_SpecificHumidity_IsbL-0175_RLatLon0.09_PT035H.grib2 2026-05-02 08:49 442K
20260502T06Z_MSC_RDPS_SpecificHumidity_IsbL-0200_RLatLon0.09_PT035H.grib2 2026-05-02 08:49 457K
20260502T06Z_MSC_RDPS_SpecificHumidity_IsbL-0225_RLatLon0.09_PT035H.grib2 2026-05-02 08:49 458K
20260502T06Z_MSC_RDPS_SpecificHumidity_IsbL-0250_RLatLon0.09_PT035H.grib2 2026-05-02 08:49 559K
20260502T06Z_MSC_RDPS_SpecificHumidity_IsbL-0275_RLatLon0.09_PT035H.grib2 2026-05-02 08:49 473K
20260502T06Z_MSC_RDPS_SpecificHumidity_IsbL-0300_RLatLon0.09_PT035H.grib2 2026-05-02 08:49 543K
20260502T06Z_MSC_RDPS_SpecificHumidity_IsbL-0350_RLatLon0.09_PT035H.grib2 2026-05-02 08:49 542K
20260502T06Z_MSC_RDPS_SpecificHumidity_IsbL-0400_RLatLon0.09_PT035H.grib2 2026-05-02 08:49 522K
20260502T06Z_MSC_RDPS_SpecificHumidity_IsbL-0450_RLatLon0.09_PT035H.grib2 2026-05-02 08:49 569K
20260502T06Z_MSC_RDPS_SpecificHumidity_IsbL-0500_RLatLon0.09_PT035H.grib2 2026-05-02 08:49 503K
20260502T06Z_MSC_RDPS_SpecificHumidity_IsbL-0550_RLatLon0.09_PT035H.grib2 2026-05-02 08:49 557K
20260502T06Z_MSC_RDPS_SpecificHumidity_IsbL-0600_RLatLon0.09_PT035H.grib2 2026-05-02 08:49 623K
20260502T06Z_MSC_RDPS_SpecificHumidity_IsbL-0650_RLatLon0.09_PT035H.grib2 2026-05-02 08:49 541K
20260502T06Z_MSC_RDPS_SpecificHumidity_IsbL-0700_RLatLon0.09_PT035H.grib2 2026-05-02 08:49 587K
20260502T06Z_MSC_RDPS_SpecificHumidity_IsbL-0750_RLatLon0.09_PT035H.grib2 2026-05-02 08:49 646K
20260502T06Z_MSC_RDPS_SpecificHumidity_IsbL-0800_RLatLon0.09_PT035H.grib2 2026-05-02 08:49 734K
20260502T06Z_MSC_RDPS_SpecificHumidity_IsbL-0850_RLatLon0.09_PT035H.grib2 2026-05-02 08:49 816K
20260502T06Z_MSC_RDPS_SpecificHumidity_IsbL-0875_RLatLon0.09_PT035H.grib2 2026-05-02 08:49 843K
20260502T06Z_MSC_RDPS_SpecificHumidity_IsbL-0900_RLatLon0.09_PT035H.grib2 2026-05-02 08:49 716K
20260502T06Z_MSC_RDPS_SpecificHumidity_IsbL-0925_RLatLon0.09_PT035H.grib2 2026-05-02 08:49 715K
20260502T06Z_MSC_RDPS_SpecificHumidity_IsbL-0950_RLatLon0.09_PT035H.grib2 2026-05-02 08:49 719K
20260502T06Z_MSC_RDPS_SpecificHumidity_IsbL-0970_RLatLon0.09_PT035H.grib2 2026-05-02 08:49 712K
20260502T06Z_MSC_RDPS_SpecificHumidity_IsbL-0985_RLatLon0.09_PT035H.grib2 2026-05-02 08:49 707K
20260502T06Z_MSC_RDPS_SpecificHumidity_IsbL-1000_RLatLon0.09_PT035H.grib2 2026-05-02 08:49 701K
20260502T06Z_MSC_RDPS_SpecificHumidity_IsbL-1015_RLatLon0.09_PT035H.grib2 2026-05-02 08:49 690K
20260502T06Z_MSC_RDPS_SpecificHumidity_Sfc_RLatLon0.09_PT035H.grib2 2026-05-02 08:49 342K
20260502T06Z_MSC_RDPS_StormRelativeHelicity_EtaL-10000_RLatLon0.09_PT035H.grib2 2026-05-02 08:49 1.0M
20260502T06Z_MSC_RDPS_StormSeverityIndex_EtaL-10000_RLatLon0.09_PT035H.grib2 2026-05-02 08:49 1.2M
20260502T06Z_MSC_RDPS_Thickness_IsbL-0850to0700_RLatLon0.09_PT035H.grib2 2026-05-02 08:49 177K
20260502T06Z_MSC_RDPS_Thickness_IsbL-1000to0500_RLatLon0.09_PT035H.grib2 2026-05-02 08:49 199K
20260502T06Z_MSC_RDPS_Thickness_IsbL-1000to0850_RLatLon0.09_PT035H.grib2 2026-05-02 08:49 267K
20260502T06Z_MSC_RDPS_TotalCloudCover_Sfc_RLatLon0.09_PT035H.grib2 2026-05-02 08:49 656K
20260502T06Z_MSC_RDPS_TotalTotalsIndex_Sfc_RLatLon0.09_PT035H.grib2 2026-05-02 08:49 2.4M
20260502T06Z_MSC_RDPS_UVIndex-ClearSky_Sfc_RLatLon0.09_PT035H.grib2 2026-05-02 08:49 222K
20260502T06Z_MSC_RDPS_UVIndex_Sfc_RLatLon0.09_PT035H.grib2 2026-05-02 08:49 514K
20260502T06Z_MSC_RDPS_UpwardLongwaveRadiationFlux_NTAtm_RLatLon0.09_PT035H.grib2 2026-05-02 08:49 494K
20260502T06Z_MSC_RDPS_UpwardShortwaveRadiationFlux_NTAtm_RLatLon0.09_PT035H.grib2 2026-05-02 08:49 549K
20260502T06Z_MSC_RDPS_VerticalVelocity_IsbL-0250_RLatLon0.09_PT035H.grib2 2026-05-02 08:49 553K
20260502T06Z_MSC_RDPS_VerticalVelocity_IsbL-0500_RLatLon0.09_PT035H.grib2 2026-05-02 08:49 674K
20260502T06Z_MSC_RDPS_VerticalVelocity_IsbL-0700_RLatLon0.09_PT035H.grib2 2026-05-02 08:49 597K
20260502T06Z_MSC_RDPS_VerticalVelocity_IsbL-0850_RLatLon0.09_PT035H.grib2 2026-05-02 08:49 705K
20260502T06Z_MSC_RDPS_VerticalWindShear_EtaL-6500_RLatLon0.09_PT035H.grib2 2026-05-02 08:49 1.2M
20260502T06Z_MSC_RDPS_WindChill_Sfc_RLatLon0.09_PT035H.grib2 2026-05-02 08:49 1.1M
20260502T06Z_MSC_RDPS_WindDir_AGL-10m_RLatLon0.09_PT035H.grib2 2026-05-02 08:49 1.0M
20260502T06Z_MSC_RDPS_WindDir_AGL-120m_RLatLon0.09_PT035H.grib2 2026-05-02 08:49 621K
20260502T06Z_MSC_RDPS_WindDir_AGL-40m_RLatLon0.09_PT035H.grib2 2026-05-02 08:49 642K
20260502T06Z_MSC_RDPS_WindDir_AGL-80m_RLatLon0.09_PT035H.grib2 2026-05-02 08:49 629K
20260502T06Z_MSC_RDPS_WindDir_IsbL-0001_RLatLon0.09_PT035H.grib2 2026-05-02 08:49 298K
20260502T06Z_MSC_RDPS_WindDir_IsbL-0005_RLatLon0.09_PT035H.grib2 2026-05-02 08:49 373K
20260502T06Z_MSC_RDPS_WindDir_IsbL-0010_RLatLon0.09_PT035H.grib2 2026-05-02 08:49 383K
20260502T06Z_MSC_RDPS_WindDir_IsbL-0020_RLatLon0.09_PT035H.grib2 2026-05-02 08:49 439K
20260502T06Z_MSC_RDPS_WindDir_IsbL-0030_RLatLon0.09_PT035H.grib2 2026-05-02 08:49 429K
20260502T06Z_MSC_RDPS_WindDir_IsbL-0050_RLatLon0.09_PT035H.grib2 2026-05-02 08:49 432K
20260502T06Z_MSC_RDPS_WindDir_IsbL-0100_RLatLon0.09_PT035H.grib2 2026-05-02 08:49 413K
20260502T06Z_MSC_RDPS_WindDir_IsbL-0150_RLatLon0.09_PT035H.grib2 2026-05-02 08:49 414K
20260502T06Z_MSC_RDPS_WindDir_IsbL-0175_RLatLon0.09_PT035H.grib2 2026-05-02 08:49 432K
20260502T06Z_MSC_RDPS_WindDir_IsbL-0200_RLatLon0.09_PT035H.grib2 2026-05-02 08:49 450K
20260502T06Z_MSC_RDPS_WindDir_IsbL-0225_RLatLon0.09_PT035H.grib2 2026-05-02 08:49 457K
20260502T06Z_MSC_RDPS_WindDir_IsbL-0250_RLatLon0.09_PT035H.grib2 2026-05-02 08:49 460K
20260502T06Z_MSC_RDPS_WindDir_IsbL-0275_RLatLon0.09_PT035H.grib2 2026-05-02 08:49 486K
20260502T06Z_MSC_RDPS_WindDir_IsbL-0300_RLatLon0.09_PT035H.grib2 2026-05-02 08:49 481K
20260502T06Z_MSC_RDPS_WindDir_IsbL-0350_RLatLon0.09_PT035H.grib2 2026-05-02 08:49 500K
20260502T06Z_MSC_RDPS_WindDir_IsbL-0400_RLatLon0.09_PT035H.grib2 2026-05-02 08:49 519K
20260502T06Z_MSC_RDPS_WindDir_IsbL-0450_RLatLon0.09_PT035H.grib2 2026-05-02 08:49 524K
20260502T06Z_MSC_RDPS_WindDir_IsbL-0500_RLatLon0.09_PT035H.grib2 2026-05-02 08:49 534K
20260502T06Z_MSC_RDPS_WindDir_IsbL-0550_RLatLon0.09_PT035H.grib2 2026-05-02 08:49 544K
20260502T06Z_MSC_RDPS_WindDir_IsbL-0600_RLatLon0.09_PT035H.grib2 2026-05-02 08:49 563K
20260502T06Z_MSC_RDPS_WindDir_IsbL-0650_RLatLon0.09_PT035H.grib2 2026-05-02 08:49 601K
20260502T06Z_MSC_RDPS_WindDir_IsbL-0700_RLatLon0.09_PT035H.grib2 2026-05-02 08:49 642K
20260502T06Z_MSC_RDPS_WindDir_IsbL-0750_RLatLon0.09_PT035H.grib2 2026-05-02 08:49 691K
20260502T06Z_MSC_RDPS_WindDir_IsbL-0800_RLatLon0.09_PT035H.grib2 2026-05-02 08:49 765K
20260502T06Z_MSC_RDPS_WindDir_IsbL-0850_RLatLon0.09_PT035H.grib2 2026-05-02 08:49 857K
20260502T06Z_MSC_RDPS_WindDir_IsbL-0875_RLatLon0.09_PT035H.grib2 2026-05-02 08:49 893K
20260502T06Z_MSC_RDPS_WindDir_IsbL-0900_RLatLon0.09_PT035H.grib2 2026-05-02 08:49 911K
20260502T06Z_MSC_RDPS_WindDir_IsbL-0925_RLatLon0.09_PT035H.grib2 2026-05-02 08:49 920K
20260502T06Z_MSC_RDPS_WindDir_IsbL-0950_RLatLon0.09_PT035H.grib2 2026-05-02 08:49 919K
20260502T06Z_MSC_RDPS_WindDir_IsbL-0970_RLatLon0.09_PT035H.grib2 2026-05-02 08:49 927K
20260502T06Z_MSC_RDPS_WindDir_IsbL-0985_RLatLon0.09_PT035H.grib2 2026-05-02 08:49 936K
20260502T06Z_MSC_RDPS_WindDir_IsbL-1000_RLatLon0.09_PT035H.grib2 2026-05-02 08:49 949K
20260502T06Z_MSC_RDPS_WindDir_IsbL-1015_RLatLon0.09_PT035H.grib2 2026-05-02 08:49 966K
20260502T06Z_MSC_RDPS_WindGust-Max_AGL-10m_RLatLon0.09_PT035H.grib2 2026-05-02 08:49 1.0M
20260502T06Z_MSC_RDPS_WindGust-Min_AGL-10m_RLatLon0.09_PT035H.grib2 2026-05-02 08:49 1.0M
20260502T06Z_MSC_RDPS_WindGust_AGL-10m_RLatLon0.09_PT035H.grib2 2026-05-02 08:49 1.0M
20260502T06Z_MSC_RDPS_WindSpeed_AGL-10m_RLatLon0.09_PT035H.grib2 2026-05-02 08:49 847K
20260502T06Z_MSC_RDPS_WindSpeed_AGL-120m_RLatLon0.09_PT035H.grib2 2026-05-02 08:49 540K
20260502T06Z_MSC_RDPS_WindSpeed_AGL-40m_RLatLon0.09_PT035H.grib2 2026-05-02 08:49 543K
20260502T06Z_MSC_RDPS_WindSpeed_AGL-80m_RLatLon0.09_PT035H.grib2 2026-05-02 08:49 540K
20260502T06Z_MSC_RDPS_WindSpeed_IsbL-0001_RLatLon0.09_PT035H.grib2 2026-05-02 08:49 256K
20260502T06Z_MSC_RDPS_WindSpeed_IsbL-0005_RLatLon0.09_PT035H.grib2 2026-05-02 08:49 348K
20260502T06Z_MSC_RDPS_WindSpeed_IsbL-0010_RLatLon0.09_PT035H.grib2 2026-05-02 08:49 399K
20260502T06Z_MSC_RDPS_WindSpeed_IsbL-0020_RLatLon0.09_PT035H.grib2 2026-05-02 08:49 326K
20260502T06Z_MSC_RDPS_WindSpeed_IsbL-0030_RLatLon0.09_PT035H.grib2 2026-05-02 08:49 324K
20260502T06Z_MSC_RDPS_WindSpeed_IsbL-0050_RLatLon0.09_PT035H.grib2 2026-05-02 08:49 353K
20260502T06Z_MSC_RDPS_WindSpeed_IsbL-0100_RLatLon0.09_PT035H.grib2 2026-05-02 08:49 478K
20260502T06Z_MSC_RDPS_WindSpeed_IsbL-0150_RLatLon0.09_PT035H.grib2 2026-05-02 08:49 383K
20260502T06Z_MSC_RDPS_WindSpeed_IsbL-0175_RLatLon0.09_PT035H.grib2 2026-05-02 08:49 428K
20260502T06Z_MSC_RDPS_WindSpeed_IsbL-0200_RLatLon0.09_PT035H.grib2 2026-05-02 08:49 444K
20260502T06Z_MSC_RDPS_WindSpeed_IsbL-0225_RLatLon0.09_PT035H.grib2 2026-05-02 08:49 451K
20260502T06Z_MSC_RDPS_WindSpeed_IsbL-0250_RLatLon0.09_PT035H.grib2 2026-05-02 08:49 454K
20260502T06Z_MSC_RDPS_WindSpeed_IsbL-0275_RLatLon0.09_PT035H.grib2 2026-05-02 08:49 471K
20260502T06Z_MSC_RDPS_WindSpeed_IsbL-0300_RLatLon0.09_PT035H.grib2 2026-05-02 08:49 467K
20260502T06Z_MSC_RDPS_WindSpeed_IsbL-0350_RLatLon0.09_PT035H.grib2 2026-05-02 08:49 460K
20260502T06Z_MSC_RDPS_WindSpeed_IsbL-0400_RLatLon0.09_PT035H.grib2 2026-05-02 08:49 463K
20260502T06Z_MSC_RDPS_WindSpeed_IsbL-0450_RLatLon0.09_PT035H.grib2 2026-05-02 08:49 463K
20260502T06Z_MSC_RDPS_WindSpeed_IsbL-0500_RLatLon0.09_PT035H.grib2 2026-05-02 08:49 461K
20260502T06Z_MSC_RDPS_WindSpeed_IsbL-0550_RLatLon0.09_PT035H.grib2 2026-05-02 08:49 463K
20260502T06Z_MSC_RDPS_WindSpeed_IsbL-0600_RLatLon0.09_PT035H.grib2 2026-05-02 08:49 588K
20260502T06Z_MSC_RDPS_WindSpeed_IsbL-0650_RLatLon0.09_PT035H.grib2 2026-05-02 08:49 607K
20260502T06Z_MSC_RDPS_WindSpeed_IsbL-0700_RLatLon0.09_PT035H.grib2 2026-05-02 08:49 634K
20260502T06Z_MSC_RDPS_WindSpeed_IsbL-0750_RLatLon0.09_PT035H.grib2 2026-05-02 08:49 711K
20260502T06Z_MSC_RDPS_WindSpeed_IsbL-0800_RLatLon0.09_PT035H.grib2 2026-05-02 08:49 763K
20260502T06Z_MSC_RDPS_WindSpeed_IsbL-0850_RLatLon0.09_PT035H.grib2 2026-05-02 08:49 825K
20260502T06Z_MSC_RDPS_WindSpeed_IsbL-0875_RLatLon0.09_PT035H.grib2 2026-05-02 08:49 849K
20260502T06Z_MSC_RDPS_WindSpeed_IsbL-0900_RLatLon0.09_PT035H.grib2 2026-05-02 08:49 859K
20260502T06Z_MSC_RDPS_WindSpeed_IsbL-0925_RLatLon0.09_PT035H.grib2 2026-05-02 08:49 868K
20260502T06Z_MSC_RDPS_WindSpeed_IsbL-0950_RLatLon0.09_PT035H.grib2 2026-05-02 08:49 866K
20260502T06Z_MSC_RDPS_WindSpeed_IsbL-0970_RLatLon0.09_PT035H.grib2 2026-05-02 08:49 863K
20260502T06Z_MSC_RDPS_WindSpeed_IsbL-0985_RLatLon0.09_PT035H.grib2 2026-05-02 08:49 860K
20260502T06Z_MSC_RDPS_WindSpeed_IsbL-1000_RLatLon0.09_PT035H.grib2 2026-05-02 08:49 855K
20260502T06Z_MSC_RDPS_WindSpeed_IsbL-1015_RLatLon0.09_PT035H.grib2 2026-05-02 08:49 846K
20260502T06Z_MSC_RDPS_WindU_AGL-10m_RLatLon0.09_PT035H.grib2 2026-05-02 08:49 437K
20260502T06Z_MSC_RDPS_WindU_AGL-120m_RLatLon0.09_PT035H.grib2 2026-05-02 08:49 420K
20260502T06Z_MSC_RDPS_WindU_AGL-40m_RLatLon0.09_PT035H.grib2 2026-05-02 08:49 540K
20260502T06Z_MSC_RDPS_WindU_AGL-80m_RLatLon0.09_PT035H.grib2 2026-05-02 08:49 421K
20260502T06Z_MSC_RDPS_WindU_IsbL-0001_RLatLon0.09_PT035H.grib2 2026-05-02 08:49 294K
20260502T06Z_MSC_RDPS_WindU_IsbL-0005_RLatLon0.09_PT035H.grib2 2026-05-02 08:49 283K
20260502T06Z_MSC_RDPS_WindU_IsbL-0010_RLatLon0.09_PT035H.grib2 2026-05-02 08:49 298K
20260502T06Z_MSC_RDPS_WindU_IsbL-0020_RLatLon0.09_PT035H.grib2 2026-05-02 08:49 317K
20260502T06Z_MSC_RDPS_WindU_IsbL-0030_RLatLon0.09_PT035H.grib2 2026-05-02 08:49 356K
20260502T06Z_MSC_RDPS_WindU_IsbL-0050_RLatLon0.09_PT035H.grib2 2026-05-02 08:49 380K
20260502T06Z_MSC_RDPS_WindU_IsbL-0100_RLatLon0.09_PT035H.grib2 2026-05-02 08:49 433K
20260502T06Z_MSC_RDPS_WindU_IsbL-0150_RLatLon0.09_PT035H.grib2 2026-05-02 08:49 397K
20260502T06Z_MSC_RDPS_WindU_IsbL-0175_RLatLon0.09_PT035H.grib2 2026-05-02 08:49 419K
20260502T06Z_MSC_RDPS_WindU_IsbL-0200_RLatLon0.09_PT035H.grib2 2026-05-02 08:49 338K
20260502T06Z_MSC_RDPS_WindU_IsbL-0225_RLatLon0.09_PT035H.grib2 2026-05-02 08:49 344K
20260502T06Z_MSC_RDPS_WindU_IsbL-0250_RLatLon0.09_PT035H.grib2 2026-05-02 08:49 345K
20260502T06Z_MSC_RDPS_WindU_IsbL-0275_RLatLon0.09_PT035H.grib2 2026-05-02 08:49 359K
20260502T06Z_MSC_RDPS_WindU_IsbL-0300_RLatLon0.09_PT035H.grib2 2026-05-02 08:49 355K
20260502T06Z_MSC_RDPS_WindU_IsbL-0350_RLatLon0.09_PT035H.grib2 2026-05-02 08:49 465K
20260502T06Z_MSC_RDPS_WindU_IsbL-0400_RLatLon0.09_PT035H.grib2 2026-05-02 08:49 467K
20260502T06Z_MSC_RDPS_WindU_IsbL-0450_RLatLon0.09_PT035H.grib2 2026-05-02 08:49 467K
20260502T06Z_MSC_RDPS_WindU_IsbL-0500_RLatLon0.09_PT035H.grib2 2026-05-02 08:49 467K
20260502T06Z_MSC_RDPS_WindU_IsbL-0550_RLatLon0.09_PT035H.grib2 2026-05-02 08:49 469K
20260502T06Z_MSC_RDPS_WindU_IsbL-0600_RLatLon0.09_PT035H.grib2 2026-05-02 08:49 459K
20260502T06Z_MSC_RDPS_WindU_IsbL-0650_RLatLon0.09_PT035H.grib2 2026-05-02 08:49 494K
20260502T06Z_MSC_RDPS_WindU_IsbL-0700_RLatLon0.09_PT035H.grib2 2026-05-02 08:49 517K
20260502T06Z_MSC_RDPS_WindU_IsbL-0750_RLatLon0.09_PT035H.grib2 2026-05-02 08:49 545K
20260502T06Z_MSC_RDPS_WindU_IsbL-0800_RLatLon0.09_PT035H.grib2 2026-05-02 08:49 575K
20260502T06Z_MSC_RDPS_WindU_IsbL-0850_RLatLon0.09_PT035H.grib2 2026-05-02 08:49 638K
20260502T06Z_MSC_RDPS_WindU_IsbL-0875_RLatLon0.09_PT035H.grib2 2026-05-02 08:49 658K
20260502T06Z_MSC_RDPS_WindU_IsbL-0900_RLatLon0.09_PT035H.grib2 2026-05-02 08:49 665K
20260502T06Z_MSC_RDPS_WindU_IsbL-0925_RLatLon0.09_PT035H.grib2 2026-05-02 08:49 670K
20260502T06Z_MSC_RDPS_WindU_IsbL-0950_RLatLon0.09_PT035H.grib2 2026-05-02 08:49 660K
20260502T06Z_MSC_RDPS_WindU_IsbL-0970_RLatLon0.09_PT035H.grib2 2026-05-02 08:49 659K
20260502T06Z_MSC_RDPS_WindU_IsbL-0985_RLatLon0.09_PT035H.grib2 2026-05-02 08:49 657K
20260502T06Z_MSC_RDPS_WindU_IsbL-1000_RLatLon0.09_PT035H.grib2 2026-05-02 08:49 793K
20260502T06Z_MSC_RDPS_WindU_IsbL-1015_RLatLon0.09_PT035H.grib2 2026-05-02 08:49 787K
20260502T06Z_MSC_RDPS_WindV_AGL-10m_RLatLon0.09_PT035H.grib2 2026-05-02 08:49 437K
20260502T06Z_MSC_RDPS_WindV_AGL-120m_RLatLon0.09_PT035H.grib2 2026-05-02 08:49 420K
20260502T06Z_MSC_RDPS_WindV_AGL-40m_RLatLon0.09_PT035H.grib2 2026-05-02 08:49 540K
20260502T06Z_MSC_RDPS_WindV_AGL-80m_RLatLon0.09_PT035H.grib2 2026-05-02 08:49 420K
20260502T06Z_MSC_RDPS_WindV_IsbL-0001_RLatLon0.09_PT035H.grib2 2026-05-02 08:49 248K
20260502T06Z_MSC_RDPS_WindV_IsbL-0005_RLatLon0.09_PT035H.grib2 2026-05-02 08:49 286K
20260502T06Z_MSC_RDPS_WindV_IsbL-0010_RLatLon0.09_PT035H.grib2 2026-05-02 08:49 391K
20260502T06Z_MSC_RDPS_WindV_IsbL-0020_RLatLon0.09_PT035H.grib2 2026-05-02 08:49 319K
20260502T06Z_MSC_RDPS_WindV_IsbL-0030_RLatLon0.09_PT035H.grib2 2026-05-02 08:49 319K
20260502T06Z_MSC_RDPS_WindV_IsbL-0050_RLatLon0.09_PT035H.grib2 2026-05-02 08:49 345K
20260502T06Z_MSC_RDPS_WindV_IsbL-0100_RLatLon0.09_PT035H.grib2 2026-05-02 08:49 335K
20260502T06Z_MSC_RDPS_WindV_IsbL-0150_RLatLon0.09_PT035H.grib2 2026-05-02 08:49 398K
20260502T06Z_MSC_RDPS_WindV_IsbL-0175_RLatLon0.09_PT035H.grib2 2026-05-02 08:49 421K
20260502T06Z_MSC_RDPS_WindV_IsbL-0200_RLatLon0.09_PT035H.grib2 2026-05-02 08:49 338K
20260502T06Z_MSC_RDPS_WindV_IsbL-0225_RLatLon0.09_PT035H.grib2 2026-05-02 08:49 368K
20260502T06Z_MSC_RDPS_WindV_IsbL-0250_RLatLon0.09_PT035H.grib2 2026-05-02 08:49 370K
20260502T06Z_MSC_RDPS_WindV_IsbL-0275_RLatLon0.09_PT035H.grib2 2026-05-02 08:49 381K
20260502T06Z_MSC_RDPS_WindV_IsbL-0300_RLatLon0.09_PT035H.grib2 2026-05-02 08:49 377K
20260502T06Z_MSC_RDPS_WindV_IsbL-0350_RLatLon0.09_PT035H.grib2 2026-05-02 08:49 359K
20260502T06Z_MSC_RDPS_WindV_IsbL-0400_RLatLon0.09_PT035H.grib2 2026-05-02 08:49 361K
20260502T06Z_MSC_RDPS_WindV_IsbL-0450_RLatLon0.09_PT035H.grib2 2026-05-02 08:49 362K
20260502T06Z_MSC_RDPS_WindV_IsbL-0500_RLatLon0.09_PT035H.grib2 2026-05-02 08:49 362K
20260502T06Z_MSC_RDPS_WindV_IsbL-0550_RLatLon0.09_PT035H.grib2 2026-05-02 08:49 467K
20260502T06Z_MSC_RDPS_WindV_IsbL-0600_RLatLon0.09_PT035H.grib2 2026-05-02 08:49 474K
20260502T06Z_MSC_RDPS_WindV_IsbL-0650_RLatLon0.09_PT035H.grib2 2026-05-02 08:49 491K
20260502T06Z_MSC_RDPS_WindV_IsbL-0700_RLatLon0.09_PT035H.grib2 2026-05-02 08:49 514K
20260502T06Z_MSC_RDPS_WindV_IsbL-0750_RLatLon0.09_PT035H.grib2 2026-05-02 08:49 542K
20260502T06Z_MSC_RDPS_WindV_IsbL-0800_RLatLon0.09_PT035H.grib2 2026-05-02 08:49 585K
20260502T06Z_MSC_RDPS_WindV_IsbL-0850_RLatLon0.09_PT035H.grib2 2026-05-02 08:49 638K
20260502T06Z_MSC_RDPS_WindV_IsbL-0875_RLatLon0.09_PT035H.grib2 2026-05-02 08:49 657K
20260502T06Z_MSC_RDPS_WindV_IsbL-0900_RLatLon0.09_PT035H.grib2 2026-05-02 08:49 664K
20260502T06Z_MSC_RDPS_WindV_IsbL-0925_RLatLon0.09_PT035H.grib2 2026-05-02 08:49 664K
20260502T06Z_MSC_RDPS_WindV_IsbL-0950_RLatLon0.09_PT035H.grib2 2026-05-02 08:49 660K
20260502T06Z_MSC_RDPS_WindV_IsbL-0970_RLatLon0.09_PT035H.grib2 2026-05-02 08:49 659K
20260502T06Z_MSC_RDPS_WindV_IsbL-0985_RLatLon0.09_PT035H.grib2 2026-05-02 08:49 657K
20260502T06Z_MSC_RDPS_WindV_IsbL-1000_RLatLon0.09_PT035H.grib2 2026-05-02 08:49 793K
20260502T06Z_MSC_RDPS_WindV_IsbL-1015_RLatLon0.09_PT035H.grib2 2026-05-02 08:49 787K